contact:dominique.lefevre@mio.osupytheas.fr, maurice.libes@osupytheas.fr, didier.mallarino@osupytheas.fr
Project:EMSO http://www.emso-fr.org/EMSO-France
Depth: 2436.0 m
Title:EMSO Ligure Ouest : Data MII capteur AQUADOPP
Date,Latitude,Longitude,X_East,Y_North,Z_Up,Amplitude_X,Amplitude_Y,Amplitude_Z,Batterie,SoundSpeed,Heading,Pitch,Roll,Pressure,TIS,Speed,Direction
, degrees North, degrees East, m.s-1, m.s-1,m.s-1, 1, 1, 1, Volt, m.s-1, degree, degree, degree, dbar, degree_C, m.s-1, degree
2020-10-06T00:04:03,42.805,6.029,-0.019,0.017,-0.008,102.0,107.0,102.0,13.4,1505.3,324.5,-0.7,1.9,2470.438,13.31,0.025,311.8
2020-10-06T00:07:03,42.805,6.029,-0.04,-0.01,-0.038,103.0,107.0,100.0,13.3,1505.3,326.5,-0.7,1.8,2470.479,13.32,0.041,256.0
2020-10-06T00:10:03,42.805,6.029,-0.061,-0.033,-0.017,103.0,108.0,101.0,13.4,1505.3,323.8,-0.7,1.8,2470.445,13.32,0.069,241.6
2020-10-06T00:13:03,42.805,6.029,0.004,0.015,0.013,101.0,109.0,102.0,13.3,1505.3,327.0,-0.7,1.8,2470.454,13.33,0.015,14.9
2020-10-06T00:16:03,42.805,6.029,-0.012,0.012,0.012,103.0,108.0,101.0,13.4,1505.3,326.6,-0.7,1.8,2470.443,13.33,0.016,315.0
2020-10-06T00:19:03,42.805,6.029,0.003,0.02,0.014,102.0,107.0,100.0,13.4,1505.3,324.4,-0.7,1.8,2470.473,13.33,0.02,8.5
2020-10-06T00:22:03,42.805,6.029,-0.016,0.012,-0.011,103.0,106.0,101.0,13.4,1505.3,327.1,-0.7,1.8,2470.439,13.33,0.02,306.9
2020-10-06T00:25:03,42.805,6.029,-0.017,0.0,-0.009,102.0,107.0,100.0,13.4,1505.4,327.7,-0.7,1.8,2470.408,13.34,0.017,270.0
2020-10-06T00:28:03,42.805,6.029,-0.027,-0.007,-0.023,102.0,109.0,101.0,13.3,1505.3,323.0,-0.6,1.8,2470.438,13.33,0.027,255.5
2020-10-06T00:31:03,42.805,6.029,-0.008,0.008,0.028,102.0,107.0,101.0,13.4,1505.3,326.4,-0.7,1.9,2470.4,13.33,0.011,315.0
2020-10-06T00:34:03,42.805,6.029,-0.019,0.002,0.005,101.0,108.0,101.0,13.4,1505.3,323.9,-0.7,1.8,2470.412,13.33,0.019,276.0
2020-10-06T00:37:03,42.805,6.029,-0.021,0.004,0.02,101.0,108.0,101.0,13.4,1505.3,322.8,-0.7,1.8,2470.402,13.33,0.021,280.8
2020-10-06T00:40:03,42.805,6.029,-0.03,-0.006,-0.049,102.0,107.0,100.0,13.4,1505.3,326.8,-0.7,1.8,2470.44,13.33,0.03,258.7
2020-10-06T00:43:03,42.805,6.029,-0.017,0.015,0.017,101.0,110.0,100.0,13.3,1505.3,325.4,-0.7,1.9,2470.468,13.33,0.022,311.4
2020-10-06T00:46:03,42.805,6.029,-0.034,0.006,-0.005,103.0,108.0,100.0,13.4,1505.3,326.8,-0.7,1.8,2470.388,13.33,0.034,280.0
2020-10-06T00:49:03,42.805,6.029,-0.01,0.008,0.001,101.0,108.0,101.0,13.3,1505.4,328.1,-0.7,1.8,2470.424,13.34,0.012,308.7
2020-10-06T00:52:03,42.805,6.029,-0.023,0.01,-0.003,102.0,108.0,101.0,13.4,1505.4,326.0,-0.7,1.8,2470.373,13.34,0.025,293.5
2020-10-06T00:55:03,42.805,6.029,-0.021,0.015,0.015,102.0,107.0,100.0,13.4,1505.3,327.2,-0.7,1.8,2470.379,13.33,0.025,305.5
2020-10-06T00:58:03,42.805,6.029,-0.004,0.009,0.019,106.0,106.0,101.0,13.4,1505.4,325.0,-0.7,1.8,2470.407,13.34,0.009,336.0
2020-10-06T01:04:03,42.805,6.029,-0.04,0.013,-0.03,103.0,108.0,103.0,13.4,1505.3,323.7,-0.7,1.8,2470.431,13.32,0.042,288.0
2020-10-06T01:07:03,42.805,6.029,-0.003,0.01,0.057,105.0,108.0,102.0,13.4,1505.3,323.5,-0.7,1.8,2470.4,13.33,0.01,343.3
2020-10-06T01:10:03,42.805,6.029,-0.021,-0.008,-0.007,102.0,108.0,100.0,13.4,1505.3,324.1,-0.7,1.8,2470.414,13.33,0.022,249.1
2020-10-06T01:13:03,42.805,6.029,-0.023,0.013,0.003,102.0,107.0,101.0,13.4,1505.3,324.5,-0.7,1.8,2470.411,13.33,0.026,299.5
2020-10-06T01:16:03,42.805,6.029,-0.031,0.013,0.006,102.0,107.0,100.0,13.4,1505.3,324.6,-0.7,1.9,2470.428,13.33,0.033,292.7
2020-10-06T01:19:03,42.805,6.029,-0.024,0.001,-0.039,102.0,107.0,101.0,13.4,1505.3,325.1,-0.7,1.8,2470.374,13.33,0.024,272.4
2020-10-06T01:22:03,42.805,6.029,-0.005,0.019,0.038,103.0,107.0,99.0,13.4,1505.3,324.1,-0.7,1.8,2470.434,13.33,0.019,345.3
2020-10-06T01:25:03,42.805,6.029,-0.017,0.022,0.013,101.0,105.0,100.0,13.3,1505.3,327.9,-0.7,1.8,2470.37,13.33,0.027,322.3
2020-10-06T01:28:03,42.805,6.029,-0.005,0.009,0.011,103.0,105.0,100.0,13.4,1505.3,322.9,-0.7,1.8,2470.39,13.33,0.01,330.9
2020-10-06T01:31:03,42.805,6.029,-0.002,0.001,0.011,102.0,106.0,100.0,13.4,1505.4,326.9,-0.7,1.8,2470.414,13.34,0.002,296.6
2020-10-06T01:34:03,42.805,6.029,0.007,0.008,0.021,102.0,106.0,101.0,13.4,1505.4,324.1,-0.7,1.8,2470.396,13.34,0.01,41.2
2020-10-06T01:37:03,42.805,6.029,0.032,0.017,0.029,101.0,105.0,100.0,13.4,1505.4,325.2,-0.7,1.8,2470.365,13.34,0.036,62.0
2020-10-06T01:40:03,42.805,6.029,-0.017,0.014,0.017,102.0,106.0,100.0,13.4,1505.4,324.0,-0.7,1.8,2470.397,13.34,0.022,309.5
2020-10-06T01:43:03,42.805,6.029,0.029,0.002,0.052,102.0,106.0,100.0,13.4,1505.4,324.1,-0.7,1.8,2470.382,13.34,0.029,86.1
2020-10-06T01:46:03,42.805,6.029,0.013,-0.012,0.033,102.0,106.0,101.0,13.4,1505.4,322.6,-0.7,1.8,2470.363,13.34,0.017,132.7
2020-10-06T01:49:03,42.805,6.029,0.006,0.013,0.039,101.0,107.0,101.0,13.4,1505.4,327.6,-0.7,1.8,2470.388,13.34,0.014,24.8
2020-10-06T01:52:03,42.805,6.029,-0.007,0.001,-0.018,101.0,105.0,101.0,13.4,1505.4,326.3,-0.7,1.8,2470.37,13.34,0.007,278.1
2020-10-06T01:55:03,42.805,6.029,0.029,-0.014,0.007,102.0,105.0,100.0,13.4,1505.4,327.2,-0.7,1.8,2470.382,13.34,0.032,115.8
2020-10-06T01:58:03,42.805,6.029,-0.009,-0.026,-0.014,101.0,105.0,100.0,13.4,1505.4,326.3,-0.7,1.8,2470.384,13.34,0.027,199.1
2020-10-06T02:04:03,42.805,6.029,0.019,0.0,0.019,103.0,104.0,102.0,13.4,1505.3,324.6,-0.7,1.8,2470.395,13.32,0.019,90.0
2020-10-06T02:07:03,42.805,6.029,0.004,0.016,0.036,101.0,104.0,101.0,13.4,1505.3,324.2,-0.7,1.9,2470.385,13.33,0.016,14.0
2020-10-06T02:10:03,42.805,6.029,0.028,-0.008,0.035,102.0,105.0,102.0,13.4,1505.3,324.6,-0.7,1.8,2470.365,13.33,0.029,105.9
2020-10-06T02:13:03,42.805,6.029,0.037,-0.001,0.051,102.0,104.0,101.0,13.3,1505.4,326.7,-0.7,1.9,2470.39,13.34,0.037,91.5
2020-10-06T02:16:03,42.805,6.029,0.007,-0.007,0.002,103.0,106.0,100.0,13.4,1505.4,325.7,-0.7,1.8,2470.396,13.34,0.009,135.0
2020-10-06T02:19:03,42.805,6.029,0.017,0.008,0.017,101.0,106.0,101.0,13.4,1505.4,327.6,-0.7,1.9,2470.416,13.34,0.018,64.8
2020-10-06T02:22:03,42.805,6.029,0.003,0.007,0.021,103.0,107.0,101.0,13.3,1505.4,323.6,-0.7,1.8,2470.371,13.34,0.007,23.2
2020-10-06T02:25:03,42.805,6.029,0.05,0.012,0.018,102.0,106.0,102.0,13.4,1505.4,325.6,-0.7,1.8,2470.356,13.34,0.051,76.5
2020-10-06T02:28:03,42.805,6.029,0.007,-0.008,-0.005,103.0,108.0,99.0,13.4,1505.4,323.0,-0.7,1.8,2470.395,13.34,0.01,138.8
2020-10-06T02:31:03,42.805,6.029,-0.009,0.005,0.026,102.0,106.0,101.0,13.3,1505.4,325.4,-0.7,1.8,2470.374,13.34,0.01,299.1
2020-10-06T02:34:03,42.805,6.029,0.034,-0.012,-0.005,104.0,106.0,100.0,13.4,1505.4,323.3,-0.7,1.9,2470.338,13.34,0.036,109.4
2020-10-06T02:37:03,42.805,6.029,0.018,-0.007,0.006,101.0,106.0,101.0,13.3,1505.3,325.2,-0.7,1.9,2470.325,13.33,0.019,111.2
2020-10-06T02:40:03,42.805,6.029,0.011,0.0,0.016,104.0,107.0,99.0,13.4,1505.3,322.5,-0.7,1.8,2470.36,13.33,0.011,90.0
2020-10-06T02:43:03,42.805,6.029,-0.065,-0.005,-0.061,102.0,107.0,102.0,13.4,1505.3,324.5,-0.7,1.8,2470.355,13.33,0.065,265.6
2020-10-06T02:46:03,42.805,6.029,-0.026,-0.032,-0.021,102.0,106.0,100.0,13.4,1505.3,327.3,-0.7,1.8,2470.37,13.33,0.041,219.1
2020-10-06T02:49:03,42.805,6.029,-0.033,-0.004,-0.036,102.0,107.0,100.0,13.4,1505.3,326.7,-0.6,1.8,2470.335,13.33,0.033,263.1
2020-10-06T02:52:03,42.805,6.029,-0.022,-0.008,-0.025,101.0,107.0,100.0,13.3,1505.3,327.7,-0.7,1.8,2470.341,13.33,0.023,250.0
2020-10-06T02:55:03,42.805,6.029,0.006,0.002,0.007,102.0,107.0,99.0,13.4,1505.3,324.5,-0.7,1.8,2470.352,13.33,0.006,71.6
2020-10-06T02:58:03,42.805,6.029,-0.054,-0.013,-0.061,102.0,107.0,100.0,13.3,1505.3,326.1,-0.7,1.8,2470.362,13.33,0.055,256.5
2020-10-06T03:04:03,42.805,6.029,-0.001,-0.02,-0.04,102.0,108.0,100.0,13.4,1505.3,325.6,-0.7,1.8,2470.369,13.31,0.02,182.9
2020-10-06T03:07:03,42.805,6.029,0.012,-0.01,0.003,101.0,108.0,99.0,13.3,1505.3,328.0,-0.7,1.8,2470.353,13.32,0.015,129.8
2020-10-06T03:10:03,42.805,6.029,-0.024,-0.022,-0.018,101.0,107.0,100.0,13.4,1505.3,324.7,-0.7,1.8,2470.35,13.32,0.032,227.5
2020-10-06T03:13:03,42.805,6.029,-0.013,0.008,-0.009,102.0,108.0,101.0,13.4,1505.3,326.9,-0.7,1.8,2470.327,13.33,0.015,301.6
2020-10-06T03:16:03,42.805,6.029,0.017,-0.005,0.025,101.0,108.0,100.0,13.3,1505.3,326.2,-0.7,1.8,2470.35,13.33,0.017,106.4
2020-10-06T03:19:03,42.805,6.029,-0.013,-0.012,0.002,103.0,106.0,99.0,13.3,1505.3,324.3,-0.7,1.8,2470.322,13.33,0.017,227.3
2020-10-06T03:22:03,42.805,6.029,-0.006,-0.019,-0.028,102.0,106.0,99.0,13.4,1505.3,327.9,-0.7,1.8,2470.371,13.33,0.019,197.5
2020-10-06T03:25:03,42.805,6.029,0.0,-0.014,0.018,102.0,106.0,101.0,13.4,1505.3,323.5,-0.7,1.8,2470.326,13.33,0.014,180.0
2020-10-06T03:28:03,42.805,6.029,0.012,0.014,0.022,102.0,106.0,101.0,13.3,1505.3,325.9,-0.7,1.9,2470.39,13.33,0.018,40.6
2020-10-06T03:31:03,42.805,6.029,0.04,-0.011,0.018,101.0,106.0,101.0,13.4,1505.3,326.0,-0.7,1.8,2470.339,13.33,0.041,105.4
2020-10-06T03:34:03,42.805,6.029,0.006,-0.012,-0.015,103.0,106.0,101.0,13.4,1505.3,326.7,-0.7,1.8,2470.339,13.33,0.013,153.4
2020-10-06T03:37:03,42.805,6.029,-0.012,-0.019,0.022,102.0,106.0,99.0,13.3,1505.3,328.6,-0.7,1.8,2470.373,13.33,0.022,212.3
2020-10-06T03:40:03,42.805,6.029,0.065,-0.023,0.026,102.0,105.0,99.0,13.3,1505.3,325.7,-0.7,1.8,2470.364,13.33,0.068,109.5
2020-10-06T03:43:03,42.805,6.029,-0.005,-0.032,-0.007,102.0,106.0,101.0,13.4,1505.3,326.5,-0.7,1.9,2470.318,13.33,0.032,188.9
2020-10-06T03:46:03,42.805,6.029,0.026,-0.018,0.026,101.0,105.0,100.0,13.4,1505.3,326.0,-0.7,1.8,2470.377,13.33,0.031,124.7
2020-10-06T03:49:03,42.805,6.029,0.017,-0.026,0.005,102.0,107.0,100.0,13.4,1505.3,326.7,-0.7,1.9,2470.333,13.33,0.031,146.8
2020-10-06T03:52:03,42.805,6.029,0.06,-0.016,0.041,102.0,104.0,101.0,13.4,1505.3,324.8,-0.7,1.9,2470.31,13.33,0.062,104.9
2020-10-06T03:55:03,42.805,6.029,0.023,-0.014,-0.002,102.0,106.0,100.0,13.3,1505.3,324.9,-0.7,1.8,2470.349,13.33,0.026,121.3
2020-10-06T03:58:03,42.805,6.029,0.013,-0.032,0.002,102.0,105.0,101.0,13.4,1505.3,324.4,-0.7,1.8,2470.346,13.33,0.034,157.9
2020-10-06T04:04:03,42.805,6.029,0.005,-0.02,0.013,102.0,105.0,100.0,13.4,1505.3,324.2,-0.7,1.8,2470.362,13.31,0.02,166.0
2020-10-06T04:07:03,42.805,6.029,0.039,-0.007,0.022,102.0,106.0,100.0,13.4,1505.3,326.9,-0.7,1.8,2470.385,13.31,0.039,100.2
2020-10-06T04:10:03,42.805,6.029,0.04,-0.014,0.025,102.0,104.0,100.0,13.4,1505.3,323.7,-0.7,1.8,2470.356,13.32,0.042,109.3
2020-10-06T04:13:03,42.805,6.029,0.039,-0.019,0.01,103.0,106.0,101.0,13.4,1505.3,323.6,-0.7,1.8,2470.343,13.32,0.043,116.0
2020-10-06T04:16:03,42.805,6.029,0.007,-0.006,0.01,102.0,106.0,101.0,13.3,1505.3,323.2,-0.7,1.9,2470.382,13.32,0.009,130.6
2020-10-06T04:19:03,42.805,6.029,0.008,-0.027,0.012,102.0,106.0,101.0,13.3,1505.3,325.9,-0.7,1.9,2470.342,13.32,0.028,163.5
2020-10-06T04:22:03,42.805,6.029,0.001,-0.044,-0.023,102.0,106.0,101.0,13.4,1505.3,325.3,-0.7,1.8,2470.346,13.33,0.044,178.7
2020-10-06T04:28:03,42.805,6.029,-0.003,0.0,-0.031,104.0,104.0,100.0,13.3,1505.3,327.8,-0.7,1.8,2470.385,13.31,0.003,270.0
2020-10-06T04:31:03,42.805,6.029,0.056,-0.021,0.004,103.0,104.0,100.0,13.4,1505.3,327.5,-0.7,1.9,2470.327,13.31,0.059,110.6
2020-10-06T04:34:03,42.805,6.029,0.032,-0.022,0.005,102.0,105.0,100.0,13.4,1505.3,325.9,-0.7,1.8,2470.395,13.32,0.038,124.5
2020-10-06T04:37:03,42.805,6.029,0.021,-0.02,0.001,103.0,106.0,101.0,13.4,1505.3,323.0,-0.7,1.8,2470.387,13.32,0.028,133.6
2020-10-06T04:40:03,42.805,6.029,0.024,-0.036,-0.018,101.0,106.0,100.0,13.3,1505.3,327.7,-0.7,1.9,2470.374,13.32,0.043,146.3
2020-10-06T04:43:03,42.805,6.029,0.029,-0.017,-0.003,102.0,105.0,101.0,13.3,1505.3,324.5,-0.7,1.8,2470.341,13.32,0.033,120.4
2020-10-06T04:46:03,42.805,6.029,0.007,-0.045,-0.016,101.0,104.0,100.0,13.3,1505.3,325.1,-0.7,1.8,2470.373,13.33,0.045,171.2
2020-10-06T04:49:03,42.805,6.029,0.058,-0.008,0.027,102.0,106.0,100.0,13.3,1505.3,325.0,-0.7,1.8,2470.383,13.33,0.058,97.8
2020-10-06T04:52:03,42.805,6.029,0.072,-0.019,0.051,102.0,105.0,101.0,13.4,1505.3,325.3,-0.7,1.8,2470.355,13.33,0.074,104.8
2020-10-06T04:55:03,42.805,6.029,0.027,-0.038,0.011,103.0,105.0,100.0,13.4,1505.3,325.0,-0.7,1.8,2470.384,13.33,0.046,144.6
2020-10-06T04:58:03,42.805,6.029,0.04,-0.018,0.026,101.0,105.0,100.0,13.4,1505.3,323.1,-0.7,1.8,2470.372,13.33,0.043,114.2
2020-10-06T05:04:03,42.805,6.029,0.011,-0.048,0.001,102.0,106.0,101.0,13.3,1505.3,323.1,-0.8,1.8,2470.408,13.31,0.049,167.1
2020-10-06T05:07:03,42.805,6.029,0.012,-0.036,-0.001,102.0,106.0,100.0,13.4,1505.3,325.1,-0.7,1.9,2470.387,13.31,0.037,161.6
2020-10-06T05:10:03,42.805,6.029,0.015,-0.019,-0.002,103.0,105.0,101.0,13.3,1505.3,326.1,-0.7,1.8,2470.366,13.32,0.024,141.7
2020-10-06T05:13:03,42.805,6.029,0.021,-0.029,0.011,104.0,105.0,101.0,13.4,1505.3,327.5,-0.7,1.8,2470.396,13.32,0.035,144.1
2020-10-06T05:16:03,42.805,6.029,-0.011,-0.027,-0.016,102.0,105.0,101.0,13.4,1505.3,323.5,-0.7,1.8,2470.426,13.32,0.029,202.2
2020-10-06T05:19:03,42.805,6.029,0.025,-0.012,0.0,101.0,104.0,100.0,13.3,1505.3,324.3,-0.6,1.8,2470.389,13.32,0.027,115.6
2020-10-06T05:22:03,42.805,6.029,0.0,-0.033,-0.026,102.0,106.0,100.0,13.3,1505.3,325.1,-0.7,1.8,2470.418,13.32,0.033,180.0
2020-10-06T05:25:03,42.805,6.029,-0.012,-0.025,-0.023,102.0,106.0,100.0,13.4,1505.3,326.3,-0.7,1.8,2470.38,13.33,0.027,205.6
2020-10-06T05:28:03,42.805,6.029,0.025,-0.009,0.019,102.0,106.0,100.0,13.4,1505.3,324.6,-0.7,1.8,2470.402,13.33,0.026,109.8
2020-10-06T05:31:03,42.805,6.029,0.043,-0.018,0.01,102.0,106.0,100.0,13.4,1505.3,325.7,-0.7,1.8,2470.39,13.33,0.046,112.7
2020-10-06T05:34:03,42.805,6.029,0.029,-0.027,0.018,103.0,105.0,101.0,13.4,1505.3,326.0,-0.7,1.8,2470.311,13.33,0.039,133.0
2020-10-06T05:37:03,42.805,6.029,0.019,-0.009,0.034,102.0,105.0,100.0,13.4,1505.3,324.5,-0.7,1.8,2470.389,13.33,0.021,115.3
2020-10-06T05:40:03,42.805,6.029,0.014,-0.045,-0.019,102.0,104.0,101.0,13.3,1505.3,328.3,-0.7,1.8,2470.394,13.33,0.047,162.7
2020-10-06T05:43:03,42.805,6.029,0.028,-0.021,0.011,101.0,104.0,102.0,13.4,1505.3,323.5,-0.7,1.8,2470.401,13.33,0.035,126.9
2020-10-06T05:46:03,42.805,6.029,0.02,-0.015,0.014,101.0,104.0,100.0,13.4,1505.3,323.8,-0.7,1.8,2470.371,13.32,0.025,126.9
2020-10-06T05:49:03,42.805,6.029,0.033,-0.028,-0.013,102.0,104.0,101.0,13.4,1505.3,326.9,-0.7,1.8,2470.371,13.32,0.043,130.3
2020-10-06T05:52:03,42.805,6.029,0.045,-0.024,0.029,102.0,105.0,100.0,13.4,1505.3,324.6,-0.7,1.8,2470.377,13.32,0.051,118.1
2020-10-06T05:55:03,42.805,6.029,0.03,-0.022,0.007,101.0,104.0,100.0,13.4,1505.3,324.5,-0.7,1.9,2470.348,13.33,0.037,126.3
2020-10-06T05:58:03,42.805,6.029,0.037,-0.033,-0.003,102.0,103.0,100.0,13.4,1505.3,326.7,-0.7,1.8,2470.407,13.33,0.049,131.7
2020-10-06T06:04:03,42.805,6.029,0.012,-0.027,-0.002,101.0,106.0,100.0,13.4,1505.3,325.3,-0.8,1.8,2470.432,13.31,0.029,156.0
2020-10-06T06:07:03,42.805,6.029,-0.019,-0.02,-0.019,101.0,107.0,100.0,13.4,1505.3,324.2,-0.7,1.8,2470.456,13.31,0.027,223.5
2020-10-06T06:10:03,42.805,6.029,0.008,-0.029,-0.03,102.0,106.0,101.0,13.4,1505.3,323.3,-0.7,1.8,2470.457,13.32,0.03,164.6
2020-10-06T06:13:03,42.805,6.029,0.028,-0.015,0.024,102.0,105.0,100.0,13.4,1505.3,326.3,-0.7,1.8,2470.404,13.32,0.031,118.2
2020-10-06T06:16:03,42.805,6.029,-0.025,-0.041,-0.069,103.0,105.0,99.0,13.4,1505.3,324.6,-0.7,1.8,2470.399,13.32,0.048,211.4
2020-10-06T06:19:03,42.805,6.029,-0.002,-0.025,-0.052,102.0,106.0,100.0,13.4,1505.3,324.1,-0.7,1.9,2470.445,13.32,0.025,184.6
2020-10-06T06:22:03,42.805,6.029,0.024,-0.009,0.042,102.0,105.0,99.0,13.4,1505.3,325.5,-0.7,1.8,2470.445,13.33,0.025,110.6
2020-10-06T06:25:03,42.805,6.029,0.008,-0.014,-0.017,103.0,105.0,99.0,13.4,1505.3,324.2,-0.7,1.8,2470.433,13.33,0.016,150.3
2020-10-06T06:28:03,42.805,6.029,-0.009,-0.025,-0.024,100.0,104.0,100.0,13.4,1505.3,324.8,-0.7,1.8,2470.422,13.33,0.026,199.8
2020-10-06T06:31:03,42.805,6.029,0.033,-0.02,0.025,102.0,104.0,100.0,13.4,1505.3,325.3,-0.7,1.8,2470.416,13.33,0.038,121.2
2020-10-06T06:34:03,42.805,6.029,-0.004,-0.013,0.01,107.0,105.0,102.0,13.4,1505.3,324.1,-0.7,1.8,2470.425,13.33,0.013,197.1
2020-10-06T06:37:03,42.805,6.029,0.035,-0.05,-0.01,101.0,105.0,100.0,13.3,1505.3,328.0,-0.7,1.8,2470.406,13.33,0.061,145.0
2020-10-06T06:40:03,42.805,6.029,0.017,-0.022,-0.013,102.0,103.0,99.0,13.4,1505.3,325.3,-0.7,1.8,2470.428,13.33,0.027,142.3
2020-10-06T06:43:03,42.805,6.029,-0.027,-0.021,-0.028,100.0,104.0,100.0,13.4,1505.3,325.4,-0.7,1.8,2470.411,13.33,0.034,232.1
2020-10-06T06:46:03,42.805,6.029,0.008,-0.024,-0.013,103.0,104.0,100.0,13.4,1505.3,327.1,-0.7,1.8,2470.426,13.33,0.025,161.6
2020-10-06T06:49:03,42.805,6.029,0.003,-0.016,0.027,103.0,104.0,100.0,13.4,1505.3,323.8,-0.7,1.8,2470.42,13.33,0.016,169.4
2020-10-06T06:52:03,42.805,6.029,0.03,-0.024,0.055,102.0,105.0,99.0,13.3,1505.3,328.0,-0.7,1.8,2470.391,13.33,0.038,128.7
2020-10-06T06:55:03,42.805,6.029,0.065,-0.036,0.042,102.0,105.0,100.0,13.4,1505.3,323.3,-0.7,1.9,2470.45,13.33,0.074,119.0
2020-10-06T06:58:03,42.805,6.029,0.029,-0.018,0.021,100.0,106.0,100.0,13.4,1505.3,326.8,-0.7,1.8,2470.462,13.33,0.034,121.8
2020-10-06T07:04:03,42.805,6.029,0.049,-0.024,0.042,103.0,105.0,101.0,13.4,1505.3,326.9,-0.7,1.8,2470.449,13.31,0.054,116.1
2020-10-06T07:07:03,42.805,6.029,-0.003,-0.015,0.006,102.0,106.0,101.0,13.4,1505.3,324.2,-0.7,1.8,2470.439,13.32,0.015,191.3
2020-10-06T07:10:03,42.805,6.029,-0.013,-0.017,0.0,101.0,102.0,101.0,13.4,1505.3,324.6,-0.7,1.8,2470.472,13.32,0.021,217.4
2020-10-06T07:13:03,42.805,6.029,0.001,-0.031,-0.01,102.0,105.0,99.0,13.4,1505.3,325.0,-0.7,1.8,2470.47,13.33,0.031,178.2
2020-10-06T07:16:03,42.805,6.029,0.023,-0.011,0.032,101.0,104.0,100.0,13.4,1505.3,326.4,-0.7,1.9,2470.471,13.33,0.025,115.6
2020-10-06T07:19:03,42.805,6.029,0.007,-0.037,-0.004,104.0,103.0,100.0,13.4,1505.3,327.9,-0.7,1.8,2470.426,13.33,0.037,169.3
2020-10-06T07:22:03,42.805,6.029,-0.009,-0.017,0.0,101.0,106.0,101.0,13.4,1505.3,324.1,-0.7,1.8,2470.464,13.33,0.019,207.9
2020-10-06T07:25:03,42.805,6.029,-0.004,-0.02,0.001,102.0,104.0,99.0,13.4,1505.3,323.8,-0.7,1.8,2470.46,13.33,0.02,191.3
2020-10-06T07:28:03,42.805,6.029,0.024,-0.023,0.007,102.0,104.0,100.0,13.4,1505.3,323.6,-0.7,1.8,2470.5,13.33,0.033,133.8
2020-10-06T07:31:03,42.805,6.029,-0.005,-0.015,-0.015,102.0,106.0,100.0,13.4,1505.3,323.1,-0.7,1.8,2470.505,13.33,0.015,198.4
2020-10-06T07:34:03,42.805,6.029,0.039,-0.022,0.024,102.0,105.0,100.0,13.4,1505.3,324.1,-0.7,1.8,2470.494,13.33,0.044,119.4
2020-10-06T07:37:03,42.805,6.029,0.007,0.002,0.016,103.0,107.0,101.0,13.4,1505.3,322.8,-0.7,1.8,2470.449,13.33,0.007,74.1
2020-10-06T07:40:03,42.805,6.029,0.009,-0.031,0.002,103.0,106.0,99.0,13.4,1505.3,323.8,-0.7,1.9,2470.458,13.33,0.032,163.8
2020-10-06T07:43:03,42.805,6.029,0.082,-0.01,0.097,102.0,104.0,100.0,13.4,1505.3,327.1,-0.7,1.8,2470.481,13.33,0.082,97.0
2020-10-06T07:46:03,42.805,6.029,0.041,-0.015,0.038,103.0,104.0,101.0,13.3,1505.3,326.2,-0.7,1.9,2470.443,13.33,0.043,110.1
2020-10-06T07:49:03,42.805,6.029,-0.008,-0.014,-0.03,102.0,106.0,100.0,13.4,1505.3,326.3,-0.7,1.8,2470.467,13.33,0.016,209.7
2020-10-06T07:52:03,42.805,6.029,0.011,-0.044,-0.038,101.0,105.0,100.0,13.4,1505.3,325.9,-0.7,1.8,2470.512,13.33,0.045,166.0
2020-10-06T07:55:03,42.805,6.029,-0.007,-0.018,0.017,102.0,106.0,100.0,13.3,1505.3,326.0,-0.7,1.8,2470.517,13.33,0.019,201.2
2020-10-06T07:58:03,42.805,6.029,-0.009,-0.022,-0.021,103.0,106.0,100.0,13.4,1505.3,326.1,-0.7,1.8,2470.526,13.33,0.023,202.2
2020-10-06T08:04:03,42.805,6.029,-0.024,-0.019,-0.024,101.0,106.0,100.0,13.3,1505.3,324.3,-0.7,1.8,2470.514,13.31,0.03,231.6
2020-10-06T08:07:03,42.805,6.029,-0.002,-0.028,-0.017,100.0,106.0,100.0,13.3,1505.3,325.9,-0.7,1.8,2470.581,13.32,0.028,184.1
2020-10-06T08:10:03,42.805,6.029,0.009,-0.022,0.027,103.0,104.0,100.0,13.4,1505.3,322.6,-0.7,1.9,2470.563,13.32,0.023,157.8
2020-10-06T08:13:03,42.805,6.029,0.01,-0.028,-0.028,102.0,106.0,100.0,13.4,1505.3,324.4,-0.7,1.8,2470.524,13.32,0.029,160.4
2020-10-06T08:16:03,42.805,6.029,0.024,-0.033,0.001,103.0,104.0,99.0,13.3,1505.3,322.7,-0.7,1.8,2470.509,13.32,0.04,144.0
2020-10-06T08:19:03,42.805,6.029,-0.002,-0.003,0.014,103.0,107.0,100.0,13.3,1505.3,326.5,-0.7,1.8,2470.515,13.33,0.003,213.7
2020-10-06T08:22:03,42.805,6.029,0.015,-0.019,-0.005,102.0,106.0,100.0,13.4,1505.3,327.9,-0.7,1.8,2470.536,13.33,0.024,141.7
2020-10-06T08:25:03,42.805,6.029,0.0,-0.027,0.016,102.0,107.0,100.0,13.4,1505.3,327.9,-0.7,1.8,2470.495,13.33,0.026,180.0
2020-10-06T08:28:03,42.805,6.029,-0.027,-0.034,-0.02,101.0,105.0,101.0,13.4,1505.3,327.4,-0.7,1.8,2470.486,13.33,0.043,218.5
2020-10-06T08:31:03,42.805,6.029,0.038,-0.012,0.049,103.0,105.0,101.0,13.3,1505.3,324.1,-0.7,1.8,2470.448,13.33,0.039,107.5
2020-10-06T08:34:03,42.805,6.029,-0.021,-0.023,-0.015,102.0,106.0,100.0,13.3,1505.3,322.8,-0.7,1.8,2470.504,13.33,0.031,222.4
2020-10-06T08:37:03,42.805,6.029,-0.053,-0.009,-0.033,103.0,106.0,100.0,13.4,1505.3,326.6,-0.7,1.8,2470.519,13.33,0.053,260.4
2020-10-06T08:40:03,42.805,6.029,-0.004,-0.023,0.006,102.0,105.0,101.0,13.3,1505.3,323.6,-0.7,1.8,2470.476,13.33,0.023,189.9
2020-10-06T08:43:03,42.805,6.029,-0.037,-0.035,-0.012,101.0,105.0,100.0,13.4,1505.3,323.7,-0.7,1.8,2470.538,13.33,0.05,226.6
2020-10-06T08:46:03,42.805,6.029,0.003,-0.023,0.002,101.0,104.0,101.0,13.4,1505.3,324.0,-0.7,1.8,2470.474,13.33,0.023,172.6
2020-10-06T08:49:03,42.805,6.029,0.005,-0.029,0.002,103.0,104.0,99.0,13.4,1505.3,324.1,-0.7,1.8,2470.511,13.33,0.029,170.2
2020-10-06T08:52:03,42.805,6.029,0.031,-0.027,-0.01,102.0,103.0,100.0,13.4,1505.3,324.8,-0.7,1.8,2470.511,13.33,0.041,131.1
2020-10-06T08:55:03,42.805,6.029,0.024,-0.029,0.005,102.0,104.0,100.0,13.4,1505.3,325.7,-0.7,1.8,2470.499,13.33,0.037,140.4
2020-10-06T08:58:03,42.805,6.029,-0.004,-0.024,0.019,102.0,106.0,101.0,13.4,1505.3,322.7,-0.7,1.8,2470.503,13.33,0.024,189.5
2020-10-06T09:04:03,42.805,6.029,0.005,-0.027,-0.02,102.0,106.0,100.0,13.4,1505.3,327.0,-0.8,1.8,2470.567,13.31,0.027,169.5
2020-10-06T09:07:03,42.805,6.029,0.024,-0.011,-0.007,103.0,104.0,100.0,13.4,1505.3,325.5,-0.7,1.8,2470.524,13.32,0.026,114.6
2020-10-06T09:10:03,42.805,6.029,-0.003,-0.008,-0.023,103.0,105.0,100.0,13.4,1505.3,323.4,-0.7,1.8,2470.545,13.32,0.008,200.6
2020-10-06T09:13:03,42.805,6.029,0.026,-0.017,-0.018,102.0,105.0,100.0,13.3,1505.3,323.0,-0.7,1.8,2470.552,13.32,0.031,123.2
2020-10-06T09:16:03,42.805,6.029,0.026,-0.038,0.019,102.0,104.0,100.0,13.3,1505.3,325.8,-0.7,1.8,2470.548,13.32,0.046,145.6
2020-10-06T09:19:03,42.805,6.029,-0.012,-0.022,-0.004,101.0,105.0,100.0,13.3,1505.3,327.0,-0.7,1.8,2470.55,13.33,0.025,208.6
2020-10-06T09:22:03,42.805,6.029,-0.013,-0.025,-0.037,105.0,106.0,101.0,13.4,1505.3,323.8,-0.7,1.8,2470.547,13.33,0.028,207.5
2020-10-06T09:25:03,42.805,6.029,0.01,-0.048,-0.003,103.0,104.0,101.0,13.4,1505.3,325.6,-0.7,1.8,2470.534,13.33,0.049,168.2
2020-10-06T09:28:03,42.805,6.029,0.012,-0.044,-0.017,102.0,105.0,101.0,13.3,1505.3,323.5,-0.7,1.8,2470.554,13.33,0.045,164.7
2020-10-06T09:31:03,42.805,6.029,0.007,-0.038,0.003,102.0,105.0,101.0,13.4,1505.3,323.2,-0.7,1.8,2470.57,13.33,0.038,169.6
2020-10-06T09:34:03,42.805,6.029,-0.013,-0.027,-0.029,101.0,106.0,100.0,13.3,1505.3,325.6,-0.7,1.8,2470.528,13.33,0.029,205.7
2020-10-06T09:37:03,42.805,6.029,-0.005,-0.02,-0.002,102.0,105.0,101.0,13.4,1505.3,323.8,-0.7,1.8,2470.502,13.33,0.02,194.0
2020-10-06T09:40:03,42.805,6.029,0.04,-0.007,-0.001,105.0,103.0,100.0,13.4,1505.3,324.2,-0.7,1.8,2470.497,13.33,0.04,99.9
2020-10-06T09:43:03,42.805,6.029,-0.004,-0.019,-0.006,102.0,105.0,100.0,13.4,1505.3,324.2,-0.7,1.8,2470.523,13.33,0.019,191.9
2020-10-06T09:46:03,42.805,6.029,0.01,-0.033,-0.002,101.0,105.0,100.0,13.4,1505.3,326.0,-0.7,1.8,2470.532,13.33,0.034,163.1
2020-10-06T09:49:03,42.805,6.029,0.032,-0.025,0.04,100.0,105.0,100.0,13.3,1505.3,322.9,-0.7,1.8,2470.566,13.33,0.04,128.0
2020-10-06T09:52:03,42.805,6.029,0.049,-0.03,0.027,101.0,103.0,101.0,13.4,1505.3,324.1,-0.7,1.8,2470.541,13.33,0.057,121.5
2020-10-06T09:55:03,42.805,6.029,0.035,-0.029,0.014,102.0,106.0,101.0,13.4,1505.3,327.1,-0.7,1.8,2470.506,13.33,0.045,129.6
2020-10-06T09:58:03,42.805,6.029,0.018,-0.049,-0.008,103.0,103.0,100.0,13.4,1505.3,323.9,-0.7,1.8,2470.518,13.33,0.052,159.8